weather.gov     
National Weather Service

Terminal Aerodrome Forecast
NWS Homepage
This page is being discontinued on March 12, 2014.
The same data is available at this site. Please update your bookmarks.
Thank you, and we apologize for the inconvenience.
Please send an email to SR-SRH.Webmaster@noaa.gov with any concerns.


Current Version
Previous Version:    01  02  03  04  05  06  07  08  09  10  11  12  13  14  15  16  17  18  19  20  21  22  23  24  25  26  27  28  29  30  
   31  32  33  34  35  
[Printable]
431
FTUS43 KAPX 201100
TAFMBL
TAF
KMBL 201138Z 2012/2112 27003KT 3SM BR OVC002
      TEMPO 2012/2013 1/2SM FG
     FM201400 28005KT P6SM SCT004 BKN012
     FM201600 29006KT P6SM BKN022
     FM202000 29006KT P6SM SCT030
     FM210100 00000KT P6SM BKN028
     FM210400 00000KT 3/4SM BR OVC002
      AMD LTD TO CLD VIS AND WIND=


U.S. Dept. of Commerce
NOAA National Weather Service
1325 East West Highway
Silver Spring, MD 20910
E-mail: w-nws.webmaster@noaa.gov
Page last modified: May 16, 2007
NATIONAL WEATHER SERVICE: for Safety, for Work, for Fun - FOR LIFE